Wind_Speed
1 1 1 1 2 2 2 2 1 2 2 2 1 1 2 2 2 3 3 4 4 5 6 7 7 7 8 10 11 12 12 12 12 11 9 7 6 5 6 6 6 6 6 6 6 6 5 5 4 4 5 5 5 6 6 6 6 6 7 7 7 8 9 9 9 9 9 9 9 9 8 8 8 7 7 6 6 6 6 6 6 7 7 8 9 9
1 1 1 1 1 2 2 2 2 2 2 2 1 1 2 2 3 4 4 5 5 6 6 7 8 7 8 10 12 12 12 11 10 8 6 5 4 4 5 5 5 4 4 4 4 4 4 3 3 3 4 4 5 6 6 7 7 8 8 8 9 9 10 10 10 9 9 9 9 8 8 7 7 6 6 5 6 6 6 7 7 8 8 9 9 9
2 1 1 2 2 1 1 2 2 1 1 1 1 1 1 2 3 3 4 4 4 4 4 5 6 6 6 7 8 9 9 7 6 4 3 4 4 4 4 4 4 3 3 3 3 3 2 2 2 2 3 4 5 5 6 7 7 8 8 9 9 9 10 10 10 10 10 9 9 8 8 7 7 6 6 6 7 7 8 8 9 9 9 10 10 10
2 2 1 2 2 2 1 1 1 1 1 1 1 1 1 1 2 3 3 3 3 3 4 4 4 4 3 3 4 6 6 4 3 2 2 3 3 3 3 3 3 2 2 2 2 1 1 1 2 3 3 4 5 6 6 7 7 8 8 9 9 9 9 9 9 9 9 9 9 9 9 9 9 8 8 8 8 9 9 9 10 10 10 10 11 11
2 2 1 1 2 2 2 2 2 2 2 2 2 2 2 1 2 2 2 2 2 2 2 2 2 2 2 2 3 4 4 4 3 3 3 3 3 2 2 2 1 1 1 1 1 1 1 2 3 3 4 5 6 6 7 7 8 8 8 8 8 8 8 8 8 8 8 8 8 9 9 9 9 9 9 9 9 9 9 10 10 10 11 11 11 11
2 2 2 2 2 2 3 3 3 3 3 3 3 3 2 2 2 2 2 2 2 2 2 2 2 2 2 2 3 3 3 3 3 3 4 4 3 2 1 1 0 0 1 1 1 1 2 3 3 4 5 6 7 7 8 8 9 9 9 9 8 8 8 8 8 7 7 7 7 8 8 8 9 9 9 9 9 9 10 10 10 11 11 11 11 11
2 2 2 2 2 2 3 4 4 3 3 3 3 3 3 3 3 3 3 3 3 3 2 2 2 2 2 2 3 3 3 3 3 3 3 3 3 3 2 2 1 1 1 1 2 3 3 4 5 6 7 8 9 9 10 10 10 10 10 10 10 10 9 9 8 8 8 8 7 7 8 8 8 8 9 9 9 10 10 10 11 11 11 11 11 11
2 2 2 2 2 2 3 3 4 3 3 2 2 2 2 2 2 2 2 2 2 2 2 2 2 2 2 3 3 3 3 3 4 4 4 3 3 3 3 4 4 3 3 3 4 5 6 7 8 8 9 10 11 11 12 12 12 12 12 11 11 11 11 10 10 9 9 9 9 8 8 8 8 9 9 10 10 10 11 11 11 11 11 11 11 11
3 2 2 2 2 2 2 2 3 3 3 3 2 2 1 1 1 1 1 2 2 2 2 2 2 2 2 3 3 3 2 2 2 2 2 2 2 2 3 3 4 5 6 6 7 8 9 10 10 11 12 13 13 14 14 13 13 13 13 13 13 13 12 12 11 11 10 10 10 10 10 10 10 10 10 11 11 11 12 12 12 12 12 11 11 11
3 2 2 2 2 2 1 2 2 3 3 3 2 2 2 2 2 1 0 1 2 3 3 3 2 2 2 3 4 4 4 3 3 3 3 3 3 4 4 5 6 7 8 9 10 11 12 12 13 14 14 15 15 15 15 15 15 15 15 14 14 14 14 13 13 12 12 12 11 11 11 11 11 12 12 12 12 12 12 12 12 12 12 11 11 11
2 2 2 1 1 1 1 1 2 2 2 2 2 2 3 3 2 2 1 1 2 2 3 3 3 3 3 3 4 5 5 4 4 5 6 7 7 8 8 9 9 10 11 12 13 14 14 15 15 16 16 17 17 17 17 17 17 17 16 15 15 14 14 14 14 14 14 13 13 13 13 13 13 13 13 13 13 13 13 12 12 12 11 11 11 11
2 2 2 2 1 1 1 1 1 2 2 1 1 2 3 3 3 2 2 2 2 3 3 3 4 4 4 4 4 5 5 4 4 4 5 7 8 9 10 10 10 11 12 13 14 15 15 16 16 17 18 18 18 19 19 19 18 17 17 15 15 14 14 14 15 15 15 14 14 14 14 14 14 14 14 14 13 13 12 12 12 12 11 11 11 11
2 2 2 2 2 2 1 1 1 1 2 1 1 2 3 3 3 3 2 2 2 3 4 4 4 5 6 6 6 6 6 5 5 5 5 5 6 8 9 9 9 9 10 11 12 12 13 14 16 18 18 19 19 19 19 19 18 17 16 14 14 13 13 13 13 13 14 14 14 14 14 14 14 14 14 14 13 13 12 12 12 12 11 11 11 11
3 2 2 2 2 2 2 1 1 2 2 2 3 2 2 3 3 2 2 2 2 3 4 5 5 5 6 8 8 7 6 5 5 5 6 5 6 8 10 10 10 10 10 10 11 11 12 13 15 16 16 16 16 16 16 16 15 14 13 12 12 11 10 10 10 11 11 12 12 13 13 13 13 13 13 13 13 12 12 12 12 11 11 11 11 11
3 2 2 2 2 2 2 2 2 2 2 3 2 2 2 2 2 3 3 3 4 4 5 6 6 5 4 5 7 7 6 5 5 5 6 7 7 9 10 11 11 11 10 10 11 11 12 12 12 12 12 11 11 12 12 12 12 11 11 10 9 9 9 9 9 9 10 10 11 11 12 12 12 12 12 12 12 12 12 12 12 11 11 11 11 11
2 2 2 2 2 2 2 2 2 2 2 2 2 2 2 2 2 3 3 4 5 5 6 6 6 5 4 4 5 6 5 5 5 6 7 8 8 8 10 11 11 11 11 10 10 10 10 10 10 9 9 9 10 11 11 10 9 9 8 8 9 9 9 9 9 9 9 10 10 10 11 11 11 12 12 12 12 12 12 12 12 12 12 12 12 12
2 2 2 2 2 2 2 2 1 1 1 1 1 1 2 2 3 3 4 5 5 5 5 5 5 5 4 3 4 5 7 7 7 7 8 9 8 8 10 10 11 11 11 10 10 9 9 8 8 8 7 8 10 10 10 9 8 8 8 8 9 9 9 9 9 10 10 10 10 10 10 11 11 11 11 12 12 12 12 12 12 12 12 12 12 12
2 2 2 2 2 2 2 1 1 1 0 0 1 1 1 2 2 3 3 4 4 4 4 4 4 4 5 4 3 5 9 8 8 8 9 9 8 8 8 10 10 10 10 9 8 8 7 7 7 8 9 11 12 12 11 10 9 9 9 9 10 10 10 10 10 10 11 11 11 11 11 11 11 11 11 12 12 12 12 12 13 13 13 13 13 13
2 2 1 1 1 2 2 1 1 1 0 0 1 1 2 2 2 2 3 3 3 4 4 4 5 5 5 6 5 6 10 10 9 8 9 9 9 7 7 8 9 9 9 8 8 7 7 8 9 11 12 13 13 12 12 12 11 11 11 11 11 11 12 12 12 12 12 12 11 12 12 12 12 12 12 12 12 12 12 13 13 13 13 13 13 13
1 1 1 1 1 1 1 1 1 1 0 0 1 2 2 2 3 3 3 3 3 4 4 5 5 6 6 6 7 8 10 10 9 8 8 9 8 8 6 7 8 9 9 8 8 7 8 8 10 11 13 13 12 12 12 13 13 13 13 13 13 13 13 13 13 13 13 13 12 12 12 12 12 12 12 12 12 13 13 13 13 13 13 13 13 13
1 1 1 1 1 1 1 1 1 1 0 0 1 2 2 3 3 3 3 3 4 4 4 5 6 6 7 7 8 8 9 9 8 7 8 8 8 7 6 6 7 8 9 9 8 8 8 9 10 11 12 12 12 12 13 13 14 14 15 15 15 15 15 15 14 14 14 14 13 13 13 13 13 13 13 13 13 13 13 13 14 14 14 14 14 14
1 0 1 1 1 1 1 1 1 1 0 1 1 2 2 3 4 4 4 5 5 5 6 6 7 8 9 10 10 11 12 10 8 7 7 8 8 7 5 6 7 8 8 8 8 7 8 9 11 12 12 12 12 12 13 13 14 14 14 14 14 14 14 14 14 14 14 13 13 14 14 14 14 14 14 14 14 14 14 14 14 14 14 14 14 14
1 1 0 1 1 1 1 1 1 1 2 2 2 2 2 3 4 5 6 6 6 7 8 9 9 10 11 12 12 12 11 10 8 6 6 7 7 6 5 5 7 7 8 8 8 8 9 10 12 12 12 12 12 12 12 12 12 12 12 11 11 10 10 10 11 11 11 12 12 12 13 13 13 13 14 14 14 14 14 14 14 14 14 14 14 14
1 1 1 1 1 2 2 2 2 3 3 3 2 3 4 5 6 7 7 8 8 8 9 10 10 11 11 11 10 9 8 9 8 6 5 6 7 7 6 6 6 7 8 8 8 9 10 11 12 11 10 11 12 13 12 11 10 9 8 7 7 7 7 7 7 7 8 9 9 10 10 11 12 12 13 13 13 13 13 13 14 14 13 13 14 14
2 2 2 2 3 3 3 3 3 4 4 3 4 6 7 8 8 8 8 9 9 8 8 8 9 9 8 7 6 6 6 8 8 6 5 6 7 7 7 6 6 7 8 9 9 10 11 11 10 9 8 9 11 13 12 10 8 6 6 6 6 7 7 7 7 7 7 7 7 8 8 9 9 10 10 11 11 12 12 12 13 13 13 13 14 15
3 3 3 3 3 3 3 3 3 3 3 4 5 6 7 8 8 8 8 8 7 7 7 8 8 8 7 6 6 5 5 7 8 6 5 6 7 7 7 6 6 7 8 10 10 10 10 10 9 8 7 7 9 11 11 9 7 6 6 7 7 8 8 8 8 8 8 8 8 8 9 9 9 10 10 11 11 11 11 12 12 12 13 14 14 15
3 3 3 3 4 4 5 5 5 4 4 5 6 6 7 8 8 8 9 8 7 7 7 7 8 8 7 6 5 5 5 6 6 6 5 5 6 7 6 5 6 7 9 10 10 10 10 10 9 8 6 6 7 9 9 8 7 7 7 8 8 9 10 10 10 11 11 11 10 10 10 10 11 11 11 11 11 11 11 12 12 13 13 14 15 15
5 5 5 6 6 7 7 8 8 9 9 10 10 10 10 10 10 10 9 9 7 7 7 7 7 7 6 6 6 6 6 6 5 4 4 5 5 6 6 6 6 7 9 10 10 10 10 9 8 6 6 7 7 8 8 8 8 8 8 9 10 11 11 12 13 13 13 13 13 13 13 12 12 12 12 12 12 12 12 12 13 13 14 14 14 14
8 8 9 9 9 10 10 11 11 12 13 13 13 13 12 10 10 10 10 9 8 7 8 8 8 7 7 7 7 7 7 6 5 5 4 4 5 6 6 5 6 7 8 9 10 9 7 6 5 5 5 7 7 7 8 9 9 9 10 11 12 13 13 14 14 14 14 15 15 15 15 15 14 14 14 13 13 13 13 13 13 13 13 14 14 14
7 8 8 9 11 12 12 13 13 14 14 14 14 13 13 12 11 11 10 9 8 8 8 8 8 7 6 6 6 6 5 4 5 6 5 4 4 5 5 5 6 6 7 7 7 7 5 4 3 4 5 7 7 7 7 8 9 9 10 11 12 13 13 13 14 14 14 14 15 16 16 16 16 16 16 16 15 15 15 15 15 14 14 13 13 14
5 6 6 8 9 11 13 14 15 15 15 15 15 14 14 13 13 13 12 10 9 8 8 8 7 7 6 5 4 3 3 2 5 6 5 3 4 5 5 5 6 6 6 5 5 4 4 4 3 3 5 7 7 7 8 8 9 9 9 10 10 10 11 11 12 12 12 13 14 15 16 17 17 18 18 18 18 18 18 17 17 16 14 14 14 14
6 7 8 9 11 13 15 15 16 16 16 16 15 14 13 13 13 14 13 12 10 9 8 8 7 7 7 6 5 4 4 1 3 6 4 3 4 5 5 5 6 6 6 5 5 4 3 4 5 6 7 8 8 8 9 9 9 9 9 9 9 9 10 11 11 11 11 12 13 14 15 16 17 18 19 20 20 20 20 20 19 18 16 14 14 14
9 9 10 11 12 13 15 15 16 16 16 15 14 13 12 11 12 12 12 12 11 10 8 7 7 7 7 7 7 7 6 4 3 4 4 3 4 5 5 6 6 6 6 6 6 7 6 7 9 10 10 9 9 9 9 9 9 8 8 8 9 9 11 11 11 11 11 12 13 13 15 16 17 18 19 19 20 20 21 20 20 19 17 15 14 14
11 11 11 11 11 11 12 12 12 12 12 12 11 10 10 10 10 10 10 10 10 10 9 8 7 7 7 7 7 7 6 5 4 3 3 3 4 5 6 6 7 7 7 7 7 8 9 10 10 10 10 10 10 9 9 9 8 8 8 9 10 11 12 12 11 11 11 11 12 12 12 13 14 15 16 17 18 19 19 19 19 19 18 16 15 14
12 12 11 10 10 10 9 9 9 8 8 8 8 8 8 8 9 9 9 9 10 10 10 9 8 7 7 7 6 6 6 4 4 4 4 4 4 5 6 7 7 7 7 8 8 8 9 10 11 11 11 11 11 10 9 8 7 7 8 9 10 11 11 11 11 11 11 11 10 10 9 10 10 11 13 14 15 16 17 17 18 18 18 17 16 15
11 10 10 9 9 8 8 8 7 7 6 6 6 6 6 7 8 8 9 9 10 9 9 9 9 9 8 8 7 7 7 6 6 6 6 6 6 7 7 8 8 8 8 8 9 9 9 10 11 11 11 11 11 10 8 7 6 7 8 9 10 10 10 10 11 10 10 10 9 8 8 8 8 9 10 12 13 14 15 16 17 17 17 17 17 17
10 9 9 8 8 7 7 7 7 6 6 5 5 6 6 6 7 7 8 10 11 11 11 10 10 10 10 10 10 10 10 10 9 9 9 9 8 9 9 9 9 9 9 9 9 9 10 10 11 12 11 11 10 9 8 8 8 9 9 10 10 10 11 11 11 10 10 9 9 8 8 8 8 9 10 11 12 13 14 15 16 17 17 18 18 18
9 9 8 7 7 7 6 6 6 6 5 5 5 5 6 7 7 7 8 10 13 14 13 13 11 11 12 12 13 13 14 13 13 13 13 13 12 11 11 11 11 10 10 9 10 10 10 10 10 10 10 10 10 10 10 10 10 10 11 11 11 11 11 11 10 9 9 9 9 9 9 9 9 9 9 10 10 11 12 13 14 15 16 17 18 19
8 8 7 7 6 6 6 6 6 5 5 5 6 6 7 8 8 9 9 11 14 15 15 15 14 13 14 16 17 18 18 18 18 18 19 18 17 15 13 12 11 11 10 10 10 10 10 10 10 10 10 10 11 11 11 10 10 11 11 12 12 11 10 9 9 9 9 9 9 10 10 9 9 9 9 9 9 10 10 10 11 11 12 13 14 16
8 7 7 6 6 6 6 6 6 6 6 7 7 8 8 8 9 9 10 11 13 15 16 16 16 16 17 18 19 19 19 19 20 20 20 19 18 16 15 13 12 11 10 10 10 10 11 11 11 12 12 11 11 11 11 11 11 11 12 11 11 10 9 9 9 10 10 10 10 10 9 9 9 9 9 9 9 9 10 10 10 10 10 11 11 12
8 7 7 6 6 7 7 7 7 7 8 8 8 8 7 7 7 8 8 9 10 11 12 13 13 14 14 15 16 16 16 17 17 17 17 16 16 15 15 14 12 11 10 10 10 10 11 11 11 12 12 12 12 13 13 12 12 12 11 11 11 11 11 11 11 11 11 10 10 9 9 9 10 10 9 9 9 10 10 10 10 10 11 11 11 11
8 8 7 7 6 6 7 7 8 8 8 8 8 8 7 7 6 6 6 7 7 7 8 8 9 9 10 11 11 12 12 13 14 14 14 14 14 14 14 14 12 11 10 10 10 11 11 11 11 12 12 12 12 12 12 12 12 11 11 11 12 13 13 12 10 9 9 9 9 9 9 9 10 10 10 10 10 10 10 11 12 12 12 12 13 13
8 7 7 7 6 7 7 8 8 8 8 8 8 8 8 7 7 6 6 6 7 7 7 7 7 7 8 8 9 9 9 10 11 11 11 12 12 12 13 13 12 11 10 10 10 10 11 11 11 12 12 12 12 12 13 13 12 12 12 12 12 11 10 9 9 8 8 8 9 9 10 10 10 10 10 10 11 11 12 12 13 14 14 14 14 14
8 8 9 9 9 10 10 9 8 8 8 8 8 8 8 7 7 7 7 7 7 6 6 6 6 7 7 8 8 7 7 7 8 8 9 9 10 10 11 11 11 11 11 11 10 10 10 11 11 11 11 11 12 12 13 13 13 12 12 12 11 11 11 11 10 10 10 10 10 10 10 10 10 10 11 11 12 12 13 13 13 13 13 13 14 14
10 11 11 11 11 10 9 9 8 8 8 8 8 8 8 7 7 7 7 7 7 6 6 6 6 6 7 7 7 6 5 5 6 7 7 8 8 9 9 10 10 11 11 12 11 11 11 11 11 11 11 11 12 13 13 13 13 13 13 12 12 12 13 13 13 12 11 11 11 11 10 10 10 11 11 11 12 12 12 12 13 13 13 13 13 14
12 12 12 11 10 10 9 9 8 8 8 8 8 8 7 7 7 7 7 7 7 7 7 6 6 6 6 6 6 5 5 5 5 6 6 7 8 8 9 9 10 11 11 12 13 13 13 12 12 11 11 12 13 14 14 14 14 13 13 13 12 12 13 13 12 12 12 11 11 11 10 10 10 10 11 12 12 13 13 12 13 13 13 13 14 14
11 10 10 9 9 9 9 8 8 8 8 8 8 8 7 7 7 7 7 7 7 7 7 7 7 7 8 7 6 6 6 6 5 5 5 6 7 8 8 9 10 11 12 12 13 14 14 15 14 14 13 13 13 14 14 13 13 13 13 13 12 12 12 12 12 11 11 11 11 10 10 10 10 11 12 12 13 13 13 13 13 13 13 13 14 14
11 10 9 9 8 8 8 7 7 7 7 7 7 7 7 7 7 7 7 8 7 7 7 7 8 8 8 8 8 7 7 6 6 6 6 6 6 6 7 7 8 9 10 12 13 14 15 15 16 16 16 15 14 14 14 13 13 13 13 12 12 12 12 12 12 11 11 11 11 11 11 10 10 11 12 12 13 13 13 13 13 13 13 14 14 15
11 10 10 9 8 8 8 7 7 7 7 7 7 7 7 7 8 8 8 8 8 8 8 8 8 8 8 8 8 8 7 7 7 7 6 6 6 6 6 6 7 8 9 10 11 12 14 15 16 18 18 18 17 15 15 14 13 12 12 12 12 12 12 12 12 11 11 11 12 12 12 11 11 11 12 13 14 14 15 14 14 14 14 14 14 14
11 11 10 9 9 8 8 8 7 8 8 8 8 7 7 7 8 8 8 8 8 8 9 9 8 8 8 8 8 8 7 7 7 7 7 6 6 6 6 6 6 6 7 8 9 10 11 12 14 16 17 18 19 18 16 14 13 12 12 12 12 12 12 13 12 12 11 11 11 11 12 12 12 12 12 13 14 15 16 15 15 14 13 13 13 14
11 11 10 9 9 8 8 8 8 8 8 8 8 8 8 8 8 8 8 8 9 9 9 9 9 9 9 8 8 8 8 8 8 7 7 7 6 6 6 6 6 6 6 7 7 7 7 8 9 10 12 15 16 17 17 15 13 12 12 12 12 12 12 12 12 12 12 11 11 11 12 12 12 13 13 13 14 15 16 16 15 14 13 12 12 13
Wind_Direction
321 346 356 25 44 51 48 45 41 40 32 30 17 351 332 316 302 294 287 286 287 290 292 290 290 291 293 285 280 278 279 280 281 281 280 284 288 290 290 295 302 307 311 317 322 326 328 328 327 326 325 321 320 319 319 319 317 313 311 309 307 304 303 299 296 291 286 282 278 275 275 274 275 275 276 277 278 279 281 283 283 282 282 282 281 279
50 27 34 49 62 64 53 44 45 50 49 36 17 353 346 325 306 289 280 280 285 292 297 294 291 292 297 292 285 281 280 279 278 277 276 276 275 275 274 280 288 297 307 314 317 319 322 327 330 331 330 328 327 324 320 316 313 310 307 305 303 301 299 299 297 295 293 291 287 284 282 281 280 278 277 279 280 281 282 283 284 284 284 283 284 282
107 85 74 72 76 80 71 52 49 55 48 31 9 353 353 341 320 304 294 291 294 299 300 295 290 289 293 296 291 284 278 276 276 275 274 263 259 261 265 269 273 281 292 297 298 305 321 333 337 332 326 322 320 318 315 313 309 307 305 302 300 298 296 293 292 290 288 287 285 282 281 279 277 276 277 278 279 279 281 283 284 285 286 285 286 285
118 108 91 86 90 97 101 81 60 41 33 11 3 354 347 342 325 312 304 300 302 300 291 287 288 292 299 310 300 287 275 268 266 264 255 246 250 260 267 269 270 270 270 270 283 301 306 303 305 309 314 315 316 316 315 312 310 307 305 302 298 295 293 291 288 285 282 277 274 271 271 271 271 274 277 278 278 279 280 283 283 283 284 284 284 283
117 114 105 99 93 91 96 83 65 46 35 31 25 17 4 352 334 322 315 315 316 314 312 321 327 336 346 340 309 291 279 266 253 242 233 232 240 260 275 283 286 279 260 251 257 276 281 289 296 302 309 312 313 312 309 306 304 302 301 299 294 292 292 290 288 283 278 271 267 265 265 266 267 270 274 275 276 277 279 280 281 281 281 281 281 280
123 123 113 102 91 79 71 68 62 57 51 46 42 40 37 29 17 12 12 18 22 21 20 22 23 21 10 335 310 304 305 295 279 261 248 241 240 240 251 272 291 272 246 238 255 277 292 300 304 303 304 306 306 304 301 298 297 296 294 292 289 287 288 287 285 282 277 272 268 265 263 262 263 265 268 271 274 276 278 279 280 280 280 279 279 278
131 126 107 99 86 69 61 62 63 61 55 49 47 44 42 42 45 48 45 44 39 32 22 16 18 22 10 339 332 340 350 348 339 325 304 286 267 250 237 226 219 222 234 256 274 284 289 290 292 293 294 295 296 296 293 292 291 289 287 284 282 281 280 278 277 277 276 274 272 270 267 265 265 265 267 270 273 275 277 279 279 278 278 277 276 275
134 132 123 117 99 76 60 55 58 61 58 49 44 41 44 49 60 67 63 55 47 35 20 9 11 19 16 356 355 2 9 2 355 347 340 330 315 292 264 252 246 245 249 259 269 275 276 277 281 284 287 289 290 290 289 288 286 283 280 278 276 275 274 272 272 272 271 271 272 271 270 269 268 268 269 271 274 276 277 278 278 277 275 274 273 273
131 132 126 117 106 96 83 60 47 49 66 65 48 27 24 38 63 89 94 78 55 35 26 12 2 4 7 352 346 348 349 346 338 333 333 343 338 314 280 272 263 258 258 260 264 269 272 275 280 284 287 288 289 289 289 287 285 281 277 274 271 270 269 269 269 268 268 268 269 269 269 269 269 270 271 274 275 276 277 276 276 274 273 272 271 271
128 128 116 93 84 82 83 78 56 46 56 66 59 37 25 19 11 5 120 92 53 27 18 12 2 356 353 341 332 327 324 318 305 290 273 275 267 259 261 266 267 266 267 268 270 273 276 280 283 286 288 290 290 291 290 289 287 285 281 276 272 268 267 266 266 265 265 265 266 266 267 268 269 270 273 275 277 277 276 274 273 271 270 269 268 267
130 131 123 109 97 89 80 79 66 52 48 60 80 70 53 46 27 5 346 16 35 30 18 2 349 342 341 337 327 321 318 316 305 293 287 283 277 272 272 274 274 275 277 278 279 281 283 285 286 287 288 290 290 290 290 290 289 288 286 282 277 271 266 264 263 263 263 264 265 265 267 268 269 271 274 275 276 275 273 271 269 268 267 266 265 265
136 141 143 136 123 111 100 89 72 56 53 71 120 97 68 56 50 31 351 351 4 13 7 349 333 323 319 319 318 315 314 312 302 294 291 289 287 284 282 283 284 285 285 286 286 287 287 288 288 288 289 290 290 290 290 289 289 289 287 284 280 275 270 266 264 263 263 264 265 266 267 268 269 271 272 273 272 271 269 267 265 263 262 262 262 263
144 149 149 142 126 111 103 100 93 80 67 60 60 62 56 42 41 32 351 342 351 352 339 329 318 309 307 305 306 308 309 306 299 292 287 284 283 283 284 285 288 290 291 291 290 290 290 290 291 291 291 292 291 291 291 290 289 287 285 283 280 277 274 270 267 265 264 265 265 266 266 267 269 269 269 268 267 266 264 262 261 260 259 259 260 261
146 150 151 139 124 112 100 99 99 89 75 62 54 50 43 28 19 3 332 326 335 336 325 312 302 296 297 299 301 303 305 306 303 297 290 285 283 284 286 288 290 291 293 293 292 291 292 292 293 294 294 294 294 293 291 290 288 286 283 281 280 280 279 277 274 271 270 269 268 268 267 267 267 266 265 264 263 261 259 257 256 257 257 258 260 262
144 151 149 138 129 118 110 102 97 87 79 70 63 51 31 13 358 342 325 321 324 326 320 309 300 290 277 288 296 303 308 314 312 304 297 292 289 290 292 294 295 294 295 294 292 292 293 294 295 295 295 295 293 289 288 287 285 284 282 282 283 284 283 282 280 278 277 275 272 270 269 267 265 264 262 260 258 257 255 254 254 255 257 258 260 263
140 145 146 143 137 130 120 107 99 91 84 77 61 35 4 344 342 339 329 322 320 320 318 314 308 298 279 277 291 305 316 325 321 310 304 298 294 293 295 298 300 300 299 296 294 294 295 295 296 295 296 294 291 288 287 287 285 283 284 284 285 284 283 282 280 279 278 276 273 271 268 266 264 262 260 258 257 255 254 254 255 256 258 259 261 262
138 148 153 157 154 143 131 120 113 106 96 71 41 23 2 340 332 329 323 317 316 316 316 316 314 306 294 289 304 316 319 325 323 314 306 299 296 294 295 300 304 305 304 300 296 294 296 296 296 295 294 291 289 288 287 285 281 280 281 282 283 282 281 279 277 277 278 277 275 272 268 266 264 262 260 258 256 255 255 255 256 257 258 260 262 263
149 160 176 180 176 163 147 146 141 150 158 323 346 353 348 340 333 326 320 318 318 317 316 313 307 300 297 297 311 322 316 325 324 314 306 299 295 295 297 304 308 309 307 303 299 296 296 295 294 292 289 286 285 285 282 279 275 275 277 277 278 279 279 278 276 276 276 276 275 274 272 269 266 264 262 259 257 257 256 257 257 258 260 261 263 264
165 179 197 197 191 183 178 184 190 194 209 289 319 325 325 332 332 325 318 317 316 314 311 306 298 291 288 290 298 308 311 319 321 313 304 299 296 296 298 306 311 312 309 303 300 298 297 296 293 291 290 290 289 287 283 279 274 272 273 272 272 273 274 275 276 276 274 273 271 271 271 270 268 266 264 260 259 259 259 259 260 260 261 262 263 264
184 191 202 200 198 194 195 192 179 169 169 325 324 317 312 313 314 313 311 311 308 303 299 293 289 286 285 287 293 302 309 317 318 312 302 298 296 295 296 304 311 312 309 303 300 299 299 299 300 300 300 299 296 291 286 280 276 273 272 271 271 271 271 272 272 273 273 273 271 269 268 268 268 267 264 262 261 261 261 261 261 261 262 262 263 263
216 200 187 190 202 210 202 174 153 142 132 344 325 317 313 315 313 311 309 308 304 299 293 287 284 286 289 290 292 296 301 309 311 308 303 299 296 294 295 304 310 312 309 305 303 302 302 303 304 307 308 306 301 294 287 281 278 275 274 273 273 273 274 274 274 274 273 273 272 271 268 267 266 265 263 263 263 263 262 262 262 262 262 262 262 263
287 230 188 186 206 216 201 170 152 152 276 347 335 321 318 322 318 314 312 309 305 299 294 289 288 289 289 288 287 289 292 296 296 297 300 298 295 294 297 306 312 312 307 306 305 305 304 305 308 310 312 310 303 295 288 282 279 277 276 276 277 278 280 282 282 281 279 276 273 272 269 266 264 264 264 263 263 263 262 262 262 262 261 261 261 262
294 266 203 191 200 204 200 185 192 248 294 317 318 310 311 314 311 308 305 302 299 295 292 290 289 288 286 284 283 283 285 289 290 289 291 291 292 296 302 311 314 311 306 306 307 307 306 306 309 313 314 311 306 298 291 285 280 278 279 281 283 286 287 288 289 288 285 281 278 274 271 269 266 265 264 263 263 263 262 261 260 260 259 260 261 263
284 265 233 217 218 220 221 230 250 268 286 293 292 294 299 300 297 294 292 291 289 287 287 288 288 286 282 282 282 277 272 282 287 286 281 284 288 294 303 310 311 308 305 306 307 307 307 307 310 313 312 308 304 300 296 289 283 279 279 281 282 283 283 282 281 282 283 282 278 275 272 269 267 265 263 262 261 260 258 257 256 257 258 260 262 265
269 255 244 240 238 236 234 246 261 273 287 298 304 306 306 303 298 293 288 286 283 282 283 285 286 286 285 284 281 270 259 276 282 279 274 281 287 293 298 305 307 307 306 307 307 308 307 306 307 308 306 301 300 300 300 294 283 273 272 272 272 271 270 270 268 267 268 266 264 263 261 259 257 256 255 253 253 253 253 254 255 257 260 263 266 268
253 245 243 244 239 232 229 237 252 273 291 308 312 311 308 304 300 295 289 285 282 282 284 286 287 288 288 286 283 274 264 277 280 276 269 277 287 291 294 300 305 307 307 307 307 306 303 301 301 303 300 297 298 302 304 297 283 268 265 266 269 270 268 267 265 261 257 253 250 249 246 244 244 245 246 247 250 253 255 257 260 263 266 268 270 271
234 226 226 225 221 218 219 226 235 247 263 278 286 291 296 298 294 290 285 282 282 283 285 286 288 289 288 283 279 275 273 276 275 270 264 273 282 287 290 297 307 310 309 306 304 302 297 293 293 296 296 295 299 305 309 305 292 277 271 272 274 274 273 271 267 263 258 255 253 250 246 244 244 244 246 248 252 257 259 261 264 266 268 271 272 272
228 220 219 222 224 226 231 238 246 254 263 269 274 279 286 288 285 281 278 280 282 282 279 278 281 284 285 283 281 281 280 274 261 251 258 272 277 280 285 296 307 311 310 307 304 299 292 284 282 286 292 299 304 309 312 313 307 298 290 287 285 283 281 279 276 272 267 263 258 255 252 250 249 249 250 252 255 258 260 261 264 266 268 270 272 272
243 242 242 243 244 247 251 256 262 267 272 277 280 282 282 278 274 271 272 275 276 274 270 270 271 274 277 280 283 283 276 267 250 245 258 270 273 276 285 297 307 312 314 313 311 305 291 276 269 277 292 307 312 312 310 311 309 305 300 296 293 290 287 284 280 276 272 269 265 261 258 256 254 253 254 254 255 257 258 259 262 265 268 270 270 270
252 254 256 259 261 264 267 271 275 278 281 284 287 288 284 275 265 262 264 266 265 263 262 263 264 266 271 278 283 280 270 250 241 248 264 267 272 279 293 301 308 313 319 320 319 314 301 282 266 277 299 310 312 307 302 300 299 298 298 297 296 294 290 285 279 275 271 269 266 264 262 259 257 256 255 255 255 255 256 257 259 263 266 268 268 268
262 264 267 271 274 277 280 282 284 287 288 290 291 290 285 275 265 259 256 254 252 252 254 256 258 260 261 268 274 277 272 240 249 262 276 267 270 284 298 303 305 308 314 319 320 316 310 300 291 294 306 308 305 300 295 293 293 295 296 297 297 295 292 288 283 277 273 270 267 266 264 262 260 259 257 257 256 256 257 257 258 260 263 264 265 265
275 277 277 278 281 284 287 288 290 291 292 294 293 290 283 274 265 258 253 248 245 243 245 249 252 253 252 251 254 265 278 267 273 278 280 270 274 284 293 296 297 298 299 300 298 296 298 300 301 303 305 303 300 297 294 292 292 293 295 296 295 294 295 295 293 288 283 278 274 271 268 265 263 262 260 260 259 259 260 260 260 259 259 260 262 263
280 281 281 282 284 286 288 290 291 293 294 295 294 290 280 269 261 255 250 245 241 238 237 242 247 249 249 249 250 257 268 270 280 284 281 275 279 283 288 289 290 292 292 289 284 279 278 285 294 299 300 299 298 297 295 292 290 289 291 293 292 292 295 298 297 294 290 286 281 277 273 269 266 264 263 262 262 262 262 262 261 259 256 255 257 259
281 282 282 281 281 282 285 287 289 291 293 294 292 285 274 263 254 249 244 241 238 234 231 234 240 246 249 251 252 253 258 262 266 272 278 278 279 281 285 284 285 287 290 288 285 281 280 282 289 296 299 300 298 296 293 290 287 285 286 289 291 294 296 298 297 295 292 289 286 282 277 273 270 267 266 264 263 262 262 261 260 257 254 251 252 255
284 282 280 277 276 277 279 280 281 282 284 285 283 277 266 255 248 244 241 238 236 234 231 231 234 240 246 252 254 254 254 256 259 264 273 279 281 282 283 280 279 282 285 286 286 286 285 285 288 293 298 300 299 296 292 288 286 286 287 291 294 296 297 297 296 294 293 292 289 286 280 276 272 270 268 265 263 261 259 258 257 255 253 250 249 251
284 280 277 274 272 273 274 275 274 272 270 268 267 263 256 248 243 241 239 237 235 233 233 235 237 239 242 247 251 254 256 261 267 270 272 276 279 279 279 275 275 278 280 282 283 284 286 288 290 292 293 295 296 296 293 291 291 292 293 295 295 295 294 294 293 292 291 289 287 285 282 278 275 272 270 267 265 262 259 256 254 253 251 249 248 249
282 279 275 272 270 270 271 273 271 267 262 258 256 254 249 244 241 240 240 240 239 238 238 241 243 245 246 248 249 251 254 259 264 268 270 271 272 272 272 272 272 272 273 276 279 282 285 288 291 291 290 287 288 292 296 298 299 298 295 295 295 294 293 292 291 289 286 284 283 282 281 279 278 276 274 272 270 268 264 261 258 255 253 251 249 248
279 278 276 273 270 269 269 269 267 264 260 256 255 253 249 246 244 244 245 246 246 245 246 247 249 250 250 251 251 253 256 258 260 263 265 267 267 267 266 267 268 267 265 267 272 277 281 284 287 289 288 286 286 288 294 298 299 298 296 296 295 294 292 291 288 285 282 281 280 279 279 280 280 279 278 276 274 272 270 267 263 260 258 256 255 253
278 277 277 275 272 270 270 268 265 263 262 261 259 257 256 253 251 250 250 251 251 251 251 251 252 253 255 256 258 260 262 262 264 265 267 268 267 264 261 260 262 263 262 262 264 267 271 273 276 280 285 289 290 292 293 295 295 296 298 299 297 294 291 290 288 285 283 281 280 280 279 280 280 279 277 276 274 272 270 269 267 264 262 261 261 260
279 279 278 276 273 272 269 267 266 266 266 266 266 265 265 264 261 258 255 255 256 256 256 256 257 259 262 264 266 267 268 268 269 270 270 270 267 263 256 253 254 258 260 259 259 260 261 264 268 272 277 282 287 290 292 291 291 293 297 298 297 295 293 292 290 287 284 281 279 278 278 278 278 277 275 273 270 268 267 267 267 266 263 261 260 262
283 282 280 279 277 275 271 272 272 271 269 269 270 270 268 265 262 259 257 254 255 257 257 258 260 262 265 268 270 270 270 271 272 272 271 269 265 259 253 248 249 252 256 257 257 256 256 259 264 268 272 276 280 284 286 286 287 288 290 290 290 291 293 292 289 285 282 278 275 275 276 278 278 277 274 271 268 266 266 266 265 265 264 261 259 258
282 282 282 282 280 279 278 279 277 274 272 270 266 262 258 255 253 251 250 250 249 249 249 252 256 262 266 266 267 268 267 269 270 271 270 266 260 253 247 244 244 247 250 253 255 255 255 256 259 264 268 272 277 281 282 283 284 285 284 284 288 291 293 291 287 282 278 276 274 275 276 277 277 276 274 272 270 268 268 266 265 264 263 262 260 259
281 281 282 283 281 280 280 279 276 273 268 264 259 255 253 251 248 247 248 250 250 250 250 253 257 263 268 270 268 266 263 266 269 270 267 262 256 249 244 242 241 242 245 249 253 255 256 256 257 260 265 269 272 276 279 282 283 283 281 281 285 289 290 290 288 285 280 277 277 277 277 277 277 276 276 275 273 272 272 271 269 267 265 263 261 260
281 281 282 281 282 283 283 280 274 268 263 259 256 254 251 248 246 244 245 248 250 251 251 254 259 264 267 269 270 268 263 260 263 264 260 259 256 251 245 242 241 240 241 245 250 255 259 259 259 260 262 265 268 271 275 278 281 281 280 279 278 276 276 280 284 285 283 279 277 276 275 275 276 277 277 276 276 275 274 273 271 268 265 263 262 261
280 282 283 284 285 284 281 276 271 265 260 257 255 253 249 246 242 240 240 244 248 249 249 252 258 263 264 264 265 265 263 255 246 244 248 251 253 253 249 243 240 241 242 244 247 252 256 260 263 264 266 266 266 268 270 274 277 279 279 278 275 272 271 274 276 278 277 276 275 274 273 273 275 277 278 277 276 275 273 271 269 267 264 261 260 260
281 283 284 285 284 281 276 273 270 266 262 259 255 252 248 244 240 238 238 241 245 247 248 248 250 254 258 260 261 261 260 256 249 243 240 239 240 243 245 244 243 245 247 248 250 252 254 257 261 265 268 269 268 267 266 269 272 276 278 278 276 275 274 274 273 273 272 272 272 272 271 272 274 275 275 277 277 276 273 270 267 265 264 262 260 260
279 280 279 279 278 278 277 274 270 265 260 258 255 251 246 241 238 238 239 240 241 244 246 246 245 247 251 254 256 256 256 255 255 250 245 237 233 232 234 239 244 248 250 253 255 256 256 257 258 261 263 266 267 267 267 267 268 271 274 277 277 276 275 274 273 272 271 271 270 270 270 271 272 272 274 276 277 276 274 271 268 265 263 262 261 261
274 274 274 274 276 276 274 271 267 263 260 259 257 252 246 241 238 238 239 239 239 240 242 242 242 245 248 250 251 252 253 254 256 255 252 244 237 234 236 241 246 250 254 257 258 259 259 258 257 256 256 257 260 264 267 267 267 269 271 274 275 275 275 275 274 273 272 270 268 266 267 266 266 269 274 277 278 277 275 273 271 268 265 263 262 261
270 268 269 270 271 272 271 269 266 264 263 261 259 256 249 243 238 237 238 238 238 238 238 238 240 244 247 249 250 250 250 252 253 252 250 246 242 241 244 248 253 256 259 261 262 263 263 262 259 256 252 250 251 256 261 264 266 267 269 270 271 273 274 275 275 274 273 271 270 268 267 263 263 266 271 275 276 276 277 276 275 272 268 265 262 260
266 265 265 266 266 267 268 268 268 266 265 263 260 257 252 246 240 238 237 237 237 237 237 237 240 243 246 249 249 249 248 249 249 249 247 244 241 241 245 250 255 260 264 267 268 268 268 268 265 260 254 249 247 248 251 257 262 265 267 268 268 270 271 273 274 274 275 274 272 271 269 266 266 267 268 271 274 276 278 278 277 274 270 267 263 261
262 262 262 261 261 262 264 265 265 264 263 261 259 256 253 249 244 240 238 236 236 237 238 238 239 242 245 248 250 249 247 247 246 246 245 241 239 238 242 246 252 259 264 269 271 272 272 275 274 270 261 249 245 244 245 248 255 261 265 268 269 269 270 272 274 275 275 275 274 272 271 270 269 268 267 268 272 276 278 278 277 276 273 270 267 265
Height
825 825 825 826 826 826 826 826 826 825 825 825 825 825 825 825 825 825 825 825 826 826 826 826 826 826 826 825 825 824 824 824 824 824 824 824 824 824 824 824 824 824 824 824 824 824 824 825 825 825 825 825 826 826 826 826 826 826 826 826 826 826 827 827 827 827 827 827 827 827 827 827 826 826 827 827 827 828 828 828 829 829 829 829 829 829
825 825 825 826 826 826 826 826 825 825 825 825 825 825 825 825 825 825 825 825 826 826 826 826 826 826 826 825 825 824 824 824 824 824 824 824 824 824 824 824 824 824 824 824 824 824 824 825 825 825 825 826 826 826 826 826 826 826 826 826 826 826 826 826 826 826 826 826 826 826 826 826 826 826 826 827 827 827 828 828 828 828 828 828 829 829
826 826 826 826 826 826 826 825 825 825 825 825 825 824 825 825 825 825 825 825 826 826 826 826 826 826 825 825 824 824 824 824 824 824 824 823 823 823 823 823 823 824 824 824 824 824 825 825 825 825 825 826 826 826 826 826 826 826 826 826 826 826 826 826 826 826 826 826 826 826 826 826 826 826 826 826 827 827 827 827 827 827 827 827 827 827
826 826 826 826 826 826 825 825 825 825 824 824 824 824 824 825 825 825 825 825 825 825 825 825 825 825 825 825 824 824 823 823 823 823 823 823 823 823 823 823 824 824 824 824 824 824 824 825 825 825 825 825 825 825 825 825 825 825 825 825 825 825 825 825 825 825 825 825 825 825 825 825 825 825 825 825 826 826 826 826 826 826 826 827 827 827
825 825 826 826 826 825 825 825 825 824 824 824 824 824 824 824 824 824 824 824 824 825 824 825 825 825 825 825 824 824 823 823 823 823 823 823 823 823 823 823 824 824 824 824 824 824 824 824 824 824 825 825 825 825 825 825 825 825 825 825 825 825 825 825 824 824 824 824 824 824 824 824 824 824 824 825 825 825 825 825 825 826 826 826 826 826
825 825 825 825 825 825 825 825 824 824 824 824 824 824 824 824 824 824 824 824 824 824 824 825 825 825 825 825 824 824 823 823 823 823 823 823 823 823 823 823 824 824 824 824 824 824 824 824 824 824 824 824 824 824 824 824 824 824 824 824 824 824 824 824 824 824 824 824 824 824 824 824 824 824 824 824 824 824 824 825 825 825 825 825 825 825
825 825 825 825 825 825 825 825 825 825 825 825 825 825 824 824 824 825 825 825 825 825 825 825 825 825 825 825 824 824 824 823 823 823 823 823 823 823 823 823 823 823 823 823 823 823 823 823 823 823 823 823 823 823 823 823 823 823 823 823 823 823 823 823 823 823 823 823 823 823 823 823 823 823 823 823 824 824 824 824 824 824 824 824 824 824
825 826 826 826 826 825 825 825 825 825 825 825 825 825 825 825 825 825 825 825 825 825 825 825 825 825 825 825 824 824 824 824 824 824 823 823 823 823 823 823 823 823 823 823 823 823 822 822 822 822 822 822 822 822 822 822 822 822 822 822 822 822 822 822 822 822 822 822 822 822 822 822 822 822 822 822 822 823 823 823 823 823 823 823 823 823
825 826 826 826 826 826 826 825 825 825 825 825 825 825 826 826 825 825 826 825 825 825 825 825 825 825 825 825 825 824 824 824 824 824 824 824 824 823 823 823 823 822 822 822 822 822 822 822 821 821 821 821 821 821 821 821 821 820 820 820 820 820 821 821 821 821 821 821 821 821 821 821 821 821 821 821 821 822 822 822 822 822 822 822 822 822
825 825 826 826 826 826 826 826 825 825 825 825 825 825 826 826 826 826 826 825 825 825 825 825 825 825 825 825 824 824 824 824 824 824 823 823 823 823 823 822 822 822 822 821 821 821 821 821 821 820 820 820 820 819 819 819 819 819 819 819 819 819 819 819 819 819 819 820 820 820 820 820 820 820 820 820 820 820 820 820 821 821 821 821 821 821
825 825 826 826 825 825 826 826 826 825 825 825 825 826 826 826 826 826 825 825 825 825 825 825 825 825 825 824 824 824 824 824 823 823 823 822 822 822 822 821 821 821 821 820 820 820 820 820 819 819 819 819 819 818 818 818 818 818 818 818 818 818 818 818 818 818 818 818 819 819 819 819 819 819 819 819 819 819 819 819 819 820 820 820 820 820
825 825 825 825 825 825 825 825 825 825 825 825 825 826 826 826 826 826 826 826 826 825 825 825 825 824 824 824 824 824 824 824 823 823 823 822 822 821 821 821 821 820 820 820 819 819 819 819 819 818 818 818 817 817 817 816 816 816 816 816 816 816 816 816 816 816 817 817 817 817 817 818 818 818 818 818 818 818 819 819 819 819 819 819 819 819
825 825 825 825 825 825 825 825 825 825 826 826 826 826 826 826 826 826 826 826 826 826 825 825 825 824 824 824 824 823 823 823 823 823 822 822 821 821 820 820 820 820 819 819 819 819 818 818 817 817 816 816 815 815 815 815 815 815 815 815 814 814 815 815 815 815 815 815 816 816 816 816 817 817 817 817 817 817 818 818 818 818 818 818 818 819
825 825 825 825 825 825 825 825 825 825 826 826 826 826 826 826 826 826 826 826 826 825 825 825 825 824 823 823 823 823 823 823 822 822 822 822 821 820 819 819 819 819 819 818 818 818 817 816 816 815 815 814 814 814 814 813 813 813 814 814 814 814 814 814 814 814 814 814 814 815 815 815 815 816 816 816 816 816 817 817 817 817 817 817 817 818
824 824 824 825 825 825 825 825 825 826 826 826 826 826 826 826 826 826 826 826 826 825 825 825 824 824 823 822 822 822 822 822 822 822 821 821 820 819 819 819 818 818 818 817 817 816 816 815 815 814 814 814 813 813 812 812 812 812 812 813 813 813 813 813 813 813 814 814 814 814 814 814 814 815 815 815 815 815 816 816 816 816 816 816 816 816
824 824 824 824 825 825 825 826 826 826 826 826 826 826 827 826 826 826 826 826 826 825 825 824 824 823 823 822 821 821 822 822 822 821 821 820 820 819 818 818 817 817 817 816 816 815 814 814 814 813 813 812 812 811 811 811 811 811 812 812 812 812 812 812 812 813 813 813 813 813 813 813 814 814 814 814 814 814 814 815 815 815 815 815 815 815
824 824 824 824 825 825 825 826 826 826 826 826 826 826 826 827 827 826 826 826 826 825 825 825 824 824 823 822 821 821 821 821 821 821 820 819 819 818 817 817 816 816 815 815 814 814 814 813 813 812 812 811 810 810 810 810 810 810 811 811 811 811 811 811 811 811 812 812 812 812 812 812 813 813 813 813 813 813 814 814 814 814 814 814 814 814
824 824 824 824 824 825 825 825 826 826 826 826 826 826 826 826 826 826 826 826 826 826 825 825 824 824 823 822 822 821 820 821 821 820 819 819 818 817 817 816 815 815 814 814 814 813 813 812 812 811 811 810 809 809 809 809 809 809 809 809 809 810 810 810 810 810 810 810 811 811 811 811 811 812 812 812 812 812 813 813 813 813 813 813 814 814
824 824 824 824 824 825 825 825 825 826 826 826 826 826 826 826 826 826 826 826 826 826 825 825 824 824 824 823 822 821 820 820 820 819 819 818 817 817 816 815 814 814 814 813 813 812 812 811 810 810 809 809 809 809 808 808 808 808 808 808 808 809 809 809 809 809 809 809 809 810 810 810 810 810 811 811 811 811 812 812 812 812 812 812 813 813
824 824 824 824 824 825 825 825 825 825 826 826 826 826 826 826 826 826 826 826 826 825 825 825 824 824 823 823 822 821 820 820 819 819 818 817 817 816 815 815 814 814 813 813 812 811 811 810 810 809 809 808 808 808 807 807 807 807 807 807 807 807 807 807 808 808 808 808 808 809 809 809 809 809 809 810 810 810 810 811 811 811 811 811 811 811
824 824 824 824 825 825 825 825 825 825 825 825 826 826 826 826 826 825 825 825 825 825 825 824 824 823 823 822 821 821 820 819 819 819 818 817 816 815 815 814 814 813 813 812 811 811 810 810 809 809 808 808 807 807 806 806 806 806 806 806 806 806 806 806 806 806 807 807 807 807 808 808 808 808 809 809 809 809 809 810 810 810 810 810 810 810
824 824 824 824 825 825 825 825 825 825 825 825 825 825 825 825 825 825 825 825 825 825 824 824 823 823 822 821 821 820 819 819 819 819 818 816 815 814 814 814 813 813 812 811 811 810 810 809 809 808 807 807 806 806 805 805 805 804 804 804 805 805 805 805 805 805 805 806 806 806 806 806 807 807 807 808 808 808 808 809 809 809 809 809 809 809
825 825 824 824 824 825 825 825 825 825 825 825 825 825 825 825 825 825 825 825 824 824 824 823 823 822 821 820 819 819 818 818 818 818 818 816 815 814 814 813 813 812 812 811 810 810 809 809 808 807 806 806 805 804 804 804 804 804 804 804 804 804 804 804 804 804 804 804 805 805 805 805 805 806 806 806 807 807 807 807 808 808 808 808 808 808
824 824 824 824 824 824 824 824 824 824 824 824 825 825 825 825 825 825 824 824 824 824 823 822 821 821 820 819 818 818 817 817 817 817 817 816 815 814 813 813 812 812 811 810 810 809 809 808 807 806 806 805 804 803 803 803 803 803 803 803 803 803 803 803 804 804 804 804 804 804 804 804 804 805 805 805 805 806 806 806 806 806 806 806 806 806
824 824 824 824 824 824 824 824 824 824 824 824 824 824 824 824 824 824 824 823 823 823 822 821 821 820 819 818 818 817 817 816 816 816 816 815 814 814 813 813 812 811 810 810 809 809 808 807 807 806 806 805 804 803 802 802 802 802 802 802 802 802 802 802 802 802 802 803 803 803 803 803 803 803 804 804 804 804 804 804 804 805 805 805 805 805
824 824 824 824 824 824 824 824 824 824 824 824 824 824 824 823 823 823 823 823 822 822 821 821 820 819 818 818 817 817 816 815 815 816 816 815 814 813 813 812 812 811 810 809 809 808 807 807 806 806 805 804 803 802 802 801 801 801 801 801 801 801 801 801 801 801 801 801 801 801 801 801 802 802 802 802 803 803 803 803 804 804 804 804 804 804
823 823 823 823 823 823 823 823 823 823 823 823 824 824 823 823 823 823 822 822 821 821 821 820 819 818 818 817 817 816 816 815 815 815 815 814 814 813 812 812 811 811 810 809 808 807 807 806 805 805 804 804 803 802 801 801 801 801 801 801 800 800 800 800 800 800 800 800 800 800 800 800 800 801 801 801 802 802 802 802 803 803 803 803 802 802
823 823 823 823 822 822 822 822 822 822 822 822 822 822 823 823 822 822 821 821 821 820 820 819 819 818 817 816 816 816 816 815 815 814 814 814 814 813 812 811 811 810 809 809 807 806 806 805 804 804 804 803 802 802 801 801 800 800 800 800 800 799 799 799 799 799 799 799 799 799 799 799 799 800 800 800 800 801 801 801 801 801 801 801 801 801
822 822 822 822 821 821 821 821 821 821 821 821 821 821 821 821 821 820 820 820 820 819 819 819 818 817 817 816 816 815 815 814 814 814 814 814 813 812 812 811 811 810 810 808 807 805 805 804 804 804 803 802 802 801 801 800 800 800 800 799 799 799 798 798 798 798 798 798 798 798 798 798 798 799 799 799 799 799 799 800 800 800 800 800 799 799
822 821 821 821 821 821 820 820 820 820 820 820 820 820 820 820 819 819 819 819 819 819 818 818 817 817 816 816 815 814 814 814 813 813 813 813 813 812 811 811 811 810 810 809 807 805 804 804 803 803 802 802 801 801 801 800 800 800 799 799 798 798 797 797 796 796 796 796 796 796 796 796 797 797 797 797 798 798 798 798 798 799 799 799 798 798
821 821 821 821 820 820 819 819 819 819 818 818 818 818 818 818 817 817 817 817 817 817 817 817 816 816 816 815 815 814 813 813 812 812 813 813 812 812 811 811 811 810 810 809 809 806 804 803 803 803 802 802 801 801 800 800 800 799 799 798 798 797 796 796 795 795 795 794 794 794 794 794 795 795 795 795 796 796 796 796 797 797 797 797 797 796
820 820 820 819 819 819 818 818 818 817 817 817 816 816 816 815 815 815 815 815 815 816 816 816 815 815 815 815 814 813 812 812 812 812 812 812 812 811 811 811 810 810 810 809 809 808 806 804 803 802 802 802 801 800 800 799 799 798 798 797 797 796 795 795 794 794 794 794 793 793 793 793 793 793 793 793 794 794 794 794 795 795 795 795 795 795
819 819 819 818 818 817 817 816 816 816 815 815 815 814 814 814 814 814 814 814 814 814 814 814 814 814 814 814 814 813 813 812 812 811 811 812 811 811 811 811 810 810 809 809 809 808 807 805 803 802 801 801 800 800 799 799 798 798 797 797 796 795 795 794 794 793 793 792 792 792 791 791 791 791 791 791 792 792 792 792 793 793 794 794 794 793
818 818 818 817 817 816 816 815 815 814 814 814 813 813 813 812 812 812 812 812 813 813 813 814 814 814 813 813 813 812 812 812 812 811 811 811 811 811 810 810 810 809 809 808 808 807 806 805 804 802 801 800 799 799 799 798 797 797 796 796 795 794 794 793 793 792 792 791 791 790 790 790 790 789 789 789 790 790 790 790 791 791 791 792 792 792
817 817 816 816 815 815 815 814 814 814 813 813 812 812 812 812 811 811 811 811 811 812 812 812 812 813 813 812 812 812 811 811 811 810 810 810 810 810 810 809 809 809 809 808 807 806 805 804 803 802 801 800 799 798 798 797 797 796 795 795 794 794 793 792 792 791 791 790 790 789 789 789 789 789 788 788 788 788 789 789 789 789 789 789 790 790
816 815 815 815 814 814 814 813 813 813 812 812 812 811 811 811 811 811 810 810 810 811 811 811 811 811 811 811 811 811 811 810 810 810 809 810 810 810 809 809 809 808 808 807 807 806 805 804 803 802 801 800 799 797 797 796 796 795 795 794 794 793 793 792 791 790 790 789 789 789 788 788 788 788 787 787 787 787 787 787 787 787 788 788 788 788
815 814 814 814 813 813 813 812 812 812 812 811 811 811 810 810 810 810 810 809 809 809 810 810 810 810 810 810 809 809 809 809 809 809 809 809 809 809 809 808 808 807 807 807 806 805 804 804 802 801 801 799 798 797 796 796 795 795 794 794 793 793 792 791 790 790 789 789 789 788 788 787 787 787 786 786 786 786 785 785 785 786 786 786 786 786
814 814 813 813 812 812 812 811 811 811 811 810 810 810 810 809 809 809 809 809 808 808 808 809 809 808 808 808 808 808 807 807 807 807 807 807 807 807 807 807 806 806 806 806 805 805 804 803 802 801 799 799 798 797 796 795 795 794 794 793 792 792 791 790 790 789 789 788 788 787 787 786 786 786 785 785 785 785 784 784 784 784 784 784 784 784
813 813 812 812 812 811 811 810 810 810 810 809 809 809 809 809 808 808 808 807 807 807 807 807 807 807 806 806 806 805 805 805 805 805 805 805 805 805 806 805 805 805 805 804 804 804 804 803 802 801 799 798 797 796 796 795 794 794 793 792 791 791 790 790 789 789 788 788 787 787 786 786 785 785 784 784 784 784 784 784 784 783 783 783 783 782
812 812 811 811 811 810 810 809 809 809 809 809 808 808 808 807 807 807 807 806 806 805 805 805 805 805 805 804 804 804 804 803 803 803 803 803 803 804 804 804 804 804 804 803 803 803 803 802 801 800 799 798 797 796 795 795 794 794 793 792 791 790 789 789 789 788 788 787 786 786 785 785 784 784 784 784 783 783 783 783 783 782 782 782 782 781
812 811 811 810 810 809 809 809 808 808 808 807 807 807 807 806 806 806 806 805 805 805 805 804 804 804 804 803 803 802 802 802 801 801 801 801 801 802 802 802 802 802 802 802 802 802 801 801 800 799 799 798 797 796 795 794 794 793 793 792 790 789 789 788 788 787 787 786 786 785 785 784 784 783 783 783 782 782 782 782 781 781 781 781 780 780
811 810 810 809 809 809 808 808 807 807 806 806 806 806 806 806 805 805 805 805 805 805 804 804 804 804 803 803 802 801 801 800 800 800 800 800 800 800 800 800 801 801 801 801 801 800 800 799 799 799 798 797 796 795 794 793 793 792 792 791 790 789 788 787 787 787 786 786 785 785 784 784 783 783 782 782 781 781 781 780 780 780 780 779 779 779
810 810 809 809 808 808 807 807 806 806 805 805 805 805 805 805 804 804 804 804 804 804 804 804 803 803 803 802 801 801 800 800 799 799 799 799 799 799 799 799 799 800 800 800 799 799 799 798 798 797 797 797 796 795 794 792 792 791 791 790 790 789 788 787 786 786 786 785 784 784 784 783 782 782 781 781 780 780 779 779 779 778 778 778 778 777
809 809 808 808 807 807 806 806 805 805 805 804 804 804 804 804 804 804 804 803 803 803 803 803 803 802 802 801 801 800 800 799 799 799 798 798 798 798 798 798 799 799 799 799 799 798 798 797 797 796 796 796 795 794 793 792 791 790 789 789 789 789 787 786 786 785 785 784 784 783 783 782 782 781 780 780 779 779 778 778 777 777 777 776 776 776
808 808 807 807 806 806 805 805 804 804 804 804 803 803 803 803 803 802 802 802 802 802 802 802 802 802 801 800 800 799 799 799 799 798 798 798 797 797 797 797 797 797 798 797 797 797 797 796 796 795 795 794 794 793 792 791 790 789 789 788 788 787 786 785 785 784 784 783 783 782 782 781 781 780 779 779 778 778 777 777 776 776 775 775 775 774
807 806 806 805 805 805 804 804 804 803 803 802 802 802 802 802 802 801 801 801 801 801 801 801 801 801 800 799 799 799 799 798 798 798 798 797 797 797 796 796 796 796 796 796 796 795 795 795 794 794 794 793 793 792 791 790 789 788 787 787 786 786 785 784 784 784 783 782 782 781 781 780 780 779 779 778 777 776 776 775 775 774 774 774 773 773
806 805 805 804 804 804 803 803 803 802 802 801 801 801 801 801 801 800 800 800 800 800 800 800 800 799 799 799 798 798 798 797 797 797 797 797 796 796 796 796 795 795 795 795 794 794 794 794 793 793 793 792 791 790 789 789 788 787 786 786 785 785 784 783 783 782 782 781 781 780 780 780 779 779 778 777 776 775 774 774 774 773 773 772 772 771
805 804 804 804 803 803 802 802 802 801 801 801 800 800 800 800 799 799 799 799 799 799 799 799 799 798 798 797 797 797 797 796 796 796 796 796 795 795 795 795 795 794 794 794 793 793 792 792 792 791 791 791 790 789 788 787 787 786 785 785 784 784 783 782 781 781 781 780 779 779 779 779 778 777 777 776 775 774 773 772 772 772 771 771 770 770
804 803 803 803 802 802 802 801 801 801 800 800 800 799 799 799 799 799 798 798 798 798 798 798 797 797 797 796 796 796 796 795 795 795 795 795 794 794 794 794 794 794 793 793 792 792 791 790 790 789 789 789 788 787 786 786 785 785 784 784 783 782 782 781 780 780 779 779 778 778 778 777 777 776 776 775 774 772 771 771 770 770 770 769 769 768
802 802 802 802 801 801 801 800 800 800 799 799 799 799 798 798 798 797 797 797 797 797 796 796 796 796 795 795 795 795 794 794 794 794 794 794 794 793 793 793 793 793 792 792 791 791 790 789 788 787 786 786 786 785 785 784 784 784 783 783 782 781 780 779 779 779 778 778 777 777 776 776 775 775 774 774 772 771 770 769 769 768 768 767 767 766
801 801 800 800 800 800 799 799 799 799 798 798 798 798 797 797 797 796 796 796 796 795 795 795 795 795 794 794 794 794 794 793 793 793 793 792 792 792 792 792 792 792 791 791 790 790 789 788 786 785 784 783 783 783 783 783 783 782 782 781 780 780 779 779 778 777 777 776 776 775 775 775 774 774 773 773 771 770 769 767 767 766 766 766 765 765